Chillicothe, MO

4:33 PM CST on November 16, 2019 (GMT -0600)
Chillicothe

Weather History for KCDJ - September, 2019

Change the Weather History Date:

Wednesday, September 11, 2019

  Actual Average (KIRK) Record (KIRK)
Temperature  
Mean Temperature 81 °F -  
Max Temperature 89 °F 80 °F 97 °F (2013)
Min Temperature 73 °F 57 °F 38 °F (1959)
Cooling Degree Days 16    
Growing Degree Days 31 (Base 50)    
Moisture  
Dew Point 72 °F    
Average Humidity 77    
Maximum Humidity 91    
Minimum Humidity 59    
Precipitation  
Precipitation 0.00 in - - ()
Sea Level Pressure  
Sea Level Pressure 30.02 in    
Wind  
Wind Speed 6 mph (South)    
Max Wind Speed 12 mph    
Max Gust Speed 21 mph    
Averages and records for this station are not official NWS values.
T = Trace of Precipitation, MM = Missing Value Source: NWS Daily Summary

Daily Weather History Graph

Daily Weather History Graph

Search for Another Location

Airport or City:

Astronomy

Sep. 11, 2019 Rise Set
Actual Time 6:51 AM CDT 7:29 PM CDT
Civil Twilight 6:24 AM CDT 7:57 PM CDT
Nautical Twilight 5:51 AM CDT 8:29 PM CDT
Astronomical Twilight 5:18 AM CDT 9:02 PM CDT
Moon 6:42 PM CDT (9/11) 4:15 AM CDT (9/11)
Length of Visible Light 13h 32m
Length of Day
12h 38m
Waxing Gibbous, 95% of the Moon is Illuminated
Sep 11
Waxing Gibbous
Sep 13
Full
Sep 21
Last Quarter
Sep 28
New
Oct 5
First Quarter

Hourly Weather History & Observations

Time (CDT) Temp. Heat Index Dew Point Humidity Pressure Visibility Wind Dir Wind Speed Gust Speed Precip Events Conditions
12:52 AM 75.9 °F - 73.0 °F 91% 30.04 in - Variable 3.5 mph - N/A   Unknown
1:52 AM 75.9 °F - 72.0 °F 87% 30.04 in - SSE 4.6 mph - N/A   Unknown
2:52 AM 75.9 °F - 72.0 °F 87% 30.04 in - South 4.6 mph - N/A   Unknown
3:52 AM 75.0 °F - 71.1 °F 87% 30.03 in - SSE 3.5 mph - N/A   Unknown
4:52 AM 73.9 °F - 71.1 °F 91% 30.03 in - SSE 3.5 mph - N/A   Unknown
5:52 AM 73.9 °F - 71.1 °F 91% 30.03 in - SSE 4.6 mph - N/A   Unknown
7:52 AM 75.0 °F - 70.0 °F 84% 30.05 in - Variable 3.5 mph - N/A   Unknown
8:52 AM 78.1 °F - 72.0 °F 81% 30.05 in - Variable 6.9 mph - N/A   Unknown
9:52 AM 80.1 °F 83.8 °F 72.0 °F 76% 30.06 in - South 9.2 mph 17.3 mph N/A   Unknown
10:52 AM 82.9 °F 88.0 °F 72.0 °F 69% 30.05 in - South 8.1 mph 20.7 mph N/A   Unknown
11:52 AM 84.0 °F 89.6 °F 72.0 °F 67% 30.04 in - SSW 10.4 mph - N/A   Unknown
12:52 PM 86.0 °F 92.2 °F 72.0 °F 63% 30.03 in - SSW 9.2 mph - N/A   Unknown
1:52 PM 87.1 °F 94.5 °F 73.0 °F 63% 30.02 in - South 11.5 mph - N/A   Unknown
2:52 PM 88.0 °F 94.7 °F 72.0 °F 59% 30.00 in - South 11.5 mph - N/A   Unknown
3:52 PM 89.1 °F 98.0 °F 73.9 °F 61% 29.98 in - SSW 8.1 mph - N/A   Unknown
4:52 PM 88.0 °F 94.7 °F 72.0 °F 59% 29.97 in - South 10.4 mph 19.6 mph N/A   Unknown
7:52 PM 80.1 °F 83.8 °F 72.0 °F 76% 29.96 in - SSE 3.5 mph - N/A   Unknown
8:52 PM 80.1 °F 83.6 °F 71.1 °F 74% 29.96 in - South 4.6 mph - N/A   Unknown
9:52 PM 78.1 °F - 71.1 °F 79% 29.97 in - South 4.6 mph - N/A   Unknown
11:52 PM 75.9 °F - 71.1 °F 85% 29.96 in - SSE 4.6 mph - N/A   Unknown